Flag for Switzerland Weather past 2 weeks in Winterthur, Switzerland

Now
46 °F

Clear.


Feels Like: 45 °F
Forecast: 38 / 64 °F
Wind: 3 mph from Northwest

Location: Zurich-Kloten


UV Index: 3 (Moderate)

Visibility: 10 mi


Pressure: 29.65 "Hg

Humidity: 87%

Dew point: 43 °F

Location of WinterthurLocation

Historic Weather in Winterthur

°F

Winterthur temperature yesterday

Maximum temperature yesterday: 48 °F (at 4:20 PM)
Minimum temperature yesterday: 36 °F (at 1:20 AM)
Average temperature yesterday: 42 °F

Past Weeks' High & Low Weather Summary

 TemperatureHumidityPressure
High70 °F (Apr 7, 6:50 PM)100% (Apr 6, 12:50 AM)30.33 "Hg (Apr 6, 12:50 AM)
Low32 °F (Apr 16, 5:20 AM)25% (Apr 17, 6:20 PM)29.65 "Hg (Apr 20, 3:50 PM)
Average50 °F66%30.07 "Hg
* Reported Apr 5 9:20 PM — Apr 20 9:50 PM, Winterthur, Weather by CustomWeather, © 2014

Note: Actual official high and low records may vary slightly from our data, if they occured in-between our weather recording intervals... More about our weather records

Advertising

Historic Weather Conditions — Data for Previous 24 hours

 ConditionsComfort  
Time TempWeatherWind HumidityBarometerVisibility
9:50 PM
Apr 20
48 °FClear.3 mph82%29.65 "Hg10 mi
9:20 PM50 °FSunny.2 mph82%29.65 "Hg10 mi
8:50 PM54 °FPassing clouds.3 mph77%29.65 "HgN/A
8:20 PM57 °FSunny.2 mph59%29.65 "Hg10 mi
7:50 PM57 °FBroken clouds.3 mph59%29.65 "HgN/A
7:20 PM57 °FBroken clouds.5 mph59%29.65 "HgN/A
6:50 PM59 °FScattered clouds.6 mph55%29.65 "HgN/A
6:20 PM61 °FScattered clouds.6 mph52%29.65 "HgN/A
5:50 PM59 °FScattered clouds.8 mph55%29.65 "HgN/A
5:20 PM61 °FPassing clouds.7 mph52%29.65 "HgN/A
4:50 PM61 °FPassing clouds.7 mph52%29.65 "HgN/A
4:20 PM61 °FPassing clouds.5 mph52%29.65 "HgN/A
3:50 PM59 °FPassing clouds.8 mph51%29.65 "HgN/A
3:20 PM59 °FPassing clouds.7 mph55%29.68 "HgN/A
2:50 PM59 °FPassing clouds.7 mph51%29.68 "HgN/A
2:20 PM59 °FPassing clouds.5 mph51%29.68 "HgN/A
1:50 PM57 °FPassing clouds.6 mph55%29.68 "HgN/A
1:20 PM55 °FPassing clouds.3 mph59%29.71 "HgN/A
12:50 PM55 °FPassing clouds.3 mph59%29.71 "HgN/A
12:20 PM54 °FPassing clouds.5 mph58%29.71 "HgN/A
11:50 AM54 °FScattered clouds.5 mph58%29.71 "HgN/A
11:20 AM52 °FScattered clouds.3 mph67%29.71 "HgN/A
10:50 AM48 °FScattered clouds.2 mph66%29.71 "HgN/A
10:20 AM48 °FBroken clouds.3 mph71%29.71 "HgN/A
9:50 AM50 °FScattered clouds.3 mph71%29.71 "HgN/A
9:20 AM46 °FScattered clouds.3 mph82%29.74 "HgN/A
8:50 AM43 °FScattered clouds.3 mph87%29.74 "Hg6 mi
8:20 AM43 °FScattered clouds.3 mph87%29.74 "Hg5 mi
7:50 AM41 °FScattered clouds.5 mph93%29.71 "Hg5 mi
7:20 AM39 °FFog.5 mph93%29.71 "Hg3 mi
6:50 AM37 °FFog.5 mph93%29.71 "Hg3 mi
6:20 AM39 °FFog.7 mph93%29.71 "Hg3 mi
5:50 AM39 °FPassing clouds.5 mph100%29.71 "Hg4 mi
5:20 AM37 °FPassing clouds.6 mph100%29.71 "Hg4 mi
4:50 AM37 °FPassing clouds.3 mph93%29.71 "Hg4 mi
4:20 AM37 °FPassing clouds.5 mph93%29.71 "Hg5 mi
3:50 AM39 °FPassing clouds.3 mph93%29.71 "Hg5 mi
3:20 AM43 °FPassing clouds.5 mph87%29.71 "Hg5 mi
2:50 AM43 °FPassing clouds.5 mph87%29.71 "Hg5 mi
1:50 AM45 °FPassing clouds.1 mph87%29.71 "Hg6 mi
1:20 AM43 °FPassing clouds.1 mph93%29.74 "HgN/A
12:50 AM43 °FPassing clouds.No wind93%29.74 "HgN/A
12:20 AM43 °FPassing clouds.2 mph93%29.74 "HgN/A
11:50 PM
Apr 19
43 °FPassing clouds.2 mph100%29.74 "HgN/A
11:20 PM45 °FPassing clouds.2 mph87%29.74 "HgN/A
Weather by CustomWeather, © 2014

See weather overview